Khamis Mushait, Saudi Arabia

5:11 PM +03 on September 19, 2017 (GMT +0300)
King Khalid Air Base

Weather History for OEKM - August, 2014

Change the Weather History Date:

Monday, August 11, 2014

  Actual Average Record
Temperature  
Mean Temperature 76 °F -  
Max Temperature 87 °F 84 °F 93 °F (2017)
Min Temperature 66 °F 62 °F 60 °F (2003)
Cooling Degree Days 12    
Growing Degree Days 26 (Base 50)    
Moisture  
Dew Point 53 °F    
Average Humidity 45    
Maximum Humidity 73    
Minimum Humidity 18    
Precipitation  
Precipitation 0.00 in - - ()
Sea Level Pressure  
Sea Level Pressure 30.15 in    
Wind  
Wind Speed 4 mph ()    
Max Wind Speed 23 mph    
Max Gust Speed -    
Visibility 5.8 miles    
Events      
Averages and records for this station are not official NWS values.
T = Trace of Precipitation, MM = Missing Value Source: Averaged Metar Reports

Daily Weather History Graph

Daily Weather History Graph

Search for Another Location

Airport or City:

Trip Planner

Search our weather history database for the weather conditions in past years. The results will help you decide how hot, cold, wet, or windy it might be!

Date:

Astronomy

Aug. 11, 2014 Rise Set
Actual Time 5:49 AM +03 6:38 PM +03
Civil Twilight 5:26 AM +03 7:00 PM +03
Nautical Twilight 4:59 AM +03 7:27 PM +03
Astronomical Twilight 4:32 AM +03 7:55 PM +03
Moon 7:09 PM +03 (8/11) 6:15 AM +03 (8/11)
Length of Visible Light 13h 34m
Length of Day
12h 48m
Waxing Gibbous, 99% of the Moon is Illuminated
Aug 11
Waxing Gibbous
Aug 17
Last Quarter
Aug 25
New
Sep 2
First Quarter
Sep 9
Full

Hourly Weather History & Observations

Time (+03) Temp. Heat Index Dew Point Humidity Pressure Visibility Wind Dir Wind Speed Gust Speed Precip Events Conditions
12:00 AM 71.6 °F - 51.8 °F 50% 30.18 in - WSW 4.6 mph - N/A   Clear
1:00 AM 69.8 °F - 50.0 °F 49% 30.15 in - Calm Calm - N/A   Clear
3:00 AM 68.0 °F - 53.6 °F 60% 30.15 in - Calm Calm - N/A   Clear
4:00 AM 68.0 °F - 53.6 °F 60% 30.15 in - Calm Calm - N/A   Clear
5:00 AM 66.2 °F - 55.4 °F 68% 30.15 in - Calm Calm - N/A   Clear
6:00 AM 66.2 °F - 55.4 °F 68% 30.15 in - Calm Calm - N/A   Clear
7:00 AM 68.0 °F - 51.8 °F 56% 30.15 in 5.6 mi South 3.5 mph - N/A   Clear
8:00 AM 73.4 °F - 60.8 °F 65% 30.18 in 5.6 mi Calm Calm - N/A   Clear
9:00 AM 78.8 °F - 55.4 °F 44% 30.18 in - Calm Calm - N/A   Clear
10:00 AM 80.6 °F 80.3 °F 53.6 °F 39% 30.18 in - North 9.2 mph - N/A   Clear
11:00 AM 84.2 °F - 51.8 °F 33% 30.18 in 6.2 mi East 13.8 mph - N/A   Partly Cloudy
12:00 PM 86.0 °F - 51.8 °F 31% 30.15 in 6.2 mi ENE 9.2 mph - N/A   Partly Cloudy
1:00 PM 87.8 °F - 44.6 °F 22% 30.15 in 6.2 mi Calm Calm - N/A   Scattered Clouds
2:00 PM 87.8 °F - 48.2 °F 25% 30.12 in 6.2 mi East 23.0 mph - N/A   Scattered Clouds
3:00 PM 87.8 °F - 39.2 °F 18% 30.12 in 6.2 mi NNE 13.8 mph - N/A   Scattered Clouds
4:00 PM 87.8 °F - 48.2 °F 25% 30.09 in 6.2 mi East 9.2 mph - N/A   Scattered Clouds
5:00 PM 86.0 °F - 48.2 °F 27% 30.09 in 6.2 mi East 9.2 mph - N/A   Scattered Clouds
6:00 PM 86.0 °F - 46.4 °F 25% 30.09 in 6.2 mi East 11.5 mph - N/A   Scattered Clouds
7:00 PM 77.0 °F - 66.2 °F 69% 30.12 in 5.6 mi SSW 4.6 mph - N/A   Partly Cloudy
8:00 PM 75.2 °F - 66.2 °F 73% 30.15 in 5.6 mi SSW 11.5 mph - N/A   Partly Cloudy
9:00 PM 75.2 °F - 66.2 °F 73% 30.15 in 5.0 mi South 4.6 mph - N/A   Clear
10:00 PM 77.0 °F - 44.6 °F 32% 30.18 in 5.0 mi ENE 6.9 mph - N/A   Clear
11:00 PM 77.0 °F - 46.4 °F 34% 30.18 in 5.6 mi ENE 9.2 mph - N/A   Clear